Kiana, AK

4:17 AM AKST on December 04, 2016 (GMT -0900)
Baker Memorial

Weather History for PAIK - January, 2012

Change the Weather History Date:

Thursday, January 26, 2012

  Actual Average (PAOT) Record (PAOT)
Temperature  
Mean Temperature -32 °F -3 °F  
Max Temperature -41 °F - 37 °F (2014)
Min Temperature -43 °F -10 °F -45 °F (1934)
Degree Days  
Heating Degree Days 98 68  
Month to date heating degree days 1757  
Since 1 July heating degree days 8059  
Cooling Degree Days 0    
Month to date cooling degree days  
Year to date cooling degree days  
Moisture  
Dew Point -33 °F    
Average Humidity 71    
Maximum Humidity 73    
Minimum Humidity 69    
Precipitation  
Precipitation 0.00 in 0.01 in 0.23 in (2001)
Month to date precipitation 0.52  
Year to date precipitation 0.52  
Snow  
Snow 0.00 in 0.30 in 5.00 in (1936)
Month to date snowfall 7.7  
Since 1 July snowfall 36.6  
Snow Depth -    
Sea Level Pressure  
Sea Level Pressure 30.09 in    
Wind  
Wind Speed 0 mph (ENE)    
Max Wind Speed 5 mph    
Max Gust Speed -    
Visibility 4 miles    
Events Fog    
T = Trace of Precipitation, MM = Missing Value Source: NWS Daily Summary

Daily Weather History Graph

Daily Weather History Graph

Search for Another Location

Airport or City:

Trip Planner

Search our weather history database for the weather conditions in past years. The results will help you decide how hot, cold, wet, or windy it might be!

Date:

Astronomy

Jan. 26, 2012 Rise Set
Actual Time 11:11 AM AKST 4:38 PM AKST
Civil Twilight 9:58 AM AKST 5:51 PM AKST
Nautical Twilight 8:48 AM AKST 7:00 PM AKST
Astronomical Twilight 7:45 AM AKST 8:03 PM AKST
Moon 10:28 AM AKST (1/26) 11:12 PM AKST (1/26)
Length of Visible Light 7h 53m
Length of Day
5h 27m
Waxing Crescent, 13% of the Moon is Illuminated
Jan 26
Waxing Crescent
Jan 30
First Quarter
Feb 7
Full
Feb 14
Last Quarter
Feb 21
New

Hourly Weather History & Observations

Time (AKST) Temp. Windchill Dew Point Humidity Pressure Visibility Wind Dir Wind Speed Gust Speed Precip Events Conditions
12:01 AM -24.0 °F - -31.0 °F 70% 30.00 in 10.0 mi Calm Calm - N/A   Clear
1:01 AM -25.1 °F - -32.1 °F 70% 30.01 in 10.0 mi Calm Calm - N/A   Clear
2:01 AM -26.0 °F - -32.1 °F 73% 30.02 in 10.0 mi Calm Calm - N/A   Clear
3:01 AM -27.9 °F - -34.1 °F 73% 30.03 in 10.0 mi Calm Calm - N/A   Clear
4:01 AM -27.9 °F - -35.0 °F 69% 30.04 in 10.0 mi Calm Calm - N/A   Clear
5:01 AM -33.0 °F - - N/A% 30.05 in 10.0 mi Calm Calm - N/A   Clear
6:01 AM -32.1 °F - - N/A% 30.06 in 10.0 mi Calm Calm - N/A   Clear
6:32 AM -34.6 °F - - N/A% 29.91 in 1.8 mi Calm Calm - N/A   Clear
6:44 AM -36.4 °F - - N/A% 29.91 in 3.0 mi Calm Calm - N/A   Clear
7:01 AM -36.9 °F - - N/A% 30.06 in 10.0 mi Calm Calm - N/A   Clear
7:38 AM -36.4 °F - - N/A% 29.92 in 2.5 mi Calm Calm - N/A   Clear
7:46 AM -36.4 °F - - N/A% 29.92 in 3.0 mi Calm Calm - N/A   Clear
8:01 AM -36.9 °F - - N/A% 30.07 in 10.0 mi Calm Calm - N/A   Clear
9:01 AM -35.0 °F - - N/A% 30.09 in 10.0 mi Calm Calm - N/A   Clear
9:18 AM -36.4 °F - - N/A% 29.95 in 2.0 mi Calm Calm - N/A   Clear
9:25 AM -36.4 °F - - N/A% 29.95 in 1.5 mi Calm Calm - N/A   Clear
9:37 AM -38.2 °F - - N/A% 29.95 in 3.0 mi Calm Calm - N/A   Clear
10:01 AM -36.9 °F - - N/A% 30.12 in 4.0 mi Calm Calm - N/A   Haze
11:01 AM -34.6 °F - - N/A% 29.98 in 1.8 mi Calm Calm - N/A   Clear
11:10 AM -34.6 °F - - N/A% 29.98 in 1.0 mi Calm Calm - N/A   Clear
11:17 AM -36.4 °F - - N/A% 29.98 in 3.0 mi Calm Calm - N/A   Clear
11:30 AM -36.4 °F - - N/A% 29.99 in 0.8 mi Calm Calm - N/A   Clear
11:49 AM -38.2 °F - - N/A% 29.99 in 0.5 mi Calm Calm - N/A Fog Light Freezing Fog
11:58 AM -36.4 °F -49.4 °F - N/A% 30.00 in 1.0 mi East 3.5 mph - N/A   Clear
12:01 PM -36.9 °F -53.0 °F - N/A% 30.15 in 1.0 mi East 4.6 mph - N/A   Clear
12:11 PM -36.4 °F -49.4 °F - N/A% 30.00 in 1.2 mi East 3.5 mph - N/A   Clear
12:20 PM -36.4 °F -49.4 °F - N/A% 30.00 in 3.0 mi East 3.5 mph - N/A   Clear
12:25 PM -36.4 °F - - N/A% 30.01 in 1.8 mi Calm Calm - N/A   Clear
12:29 PM -36.4 °F - - N/A% 30.01 in 0.8 mi Calm Calm - N/A   Clear
12:48 PM -34.6 °F - - N/A% 30.02 in 1.0 mi Calm Calm - N/A   Clear
1:01 PM -32.8 °F - - N/A% 30.02 in 1.5 mi Calm Calm - N/A   Clear
1:12 PM -32.8 °F - - N/A% 30.02 in 3.0 mi Calm Calm - N/A   Clear
1:37 PM -29.2 °F - - N/A% 30.03 in 2.5 mi Calm Calm - N/A   Clear
1:47 PM -29.2 °F - - N/A% 30.03 in 4.0 mi Calm Calm - N/A   Haze
2:01 PM -31.0 °F - - N/A% 30.19 in 8.0 mi Calm Calm - N/A   Clear
3:01 PM -29.9 °F - - N/A% 30.20 in 9.0 mi Calm Calm - N/A   Clear
4:01 PM -34.1 °F - - N/A% 30.22 in 9.0 mi Calm Calm - N/A   Clear
5:01 PM -35.0 °F - - N/A% 30.23 in 5.0 mi Calm Calm - N/A   Haze
6:01 PM -35.0 °F - - N/A% 30.26 in 10.0 mi Calm Calm - N/A   Clear
7:01 PM -36.9 °F - - N/A% 30.27 in 10.0 mi Calm Calm - N/A   Clear
7:59 PM -36.4 °F - - N/A% 30.14 in 1.8 mi Calm Calm - N/A   Clear
8:01 PM -36.9 °F - - N/A% 30.29 in 1.8 mi Calm Calm - N/A   Clear
8:09 PM -36.4 °F - - N/A% 30.14 in 2.5 mi Calm Calm - N/A   Clear
8:56 PM -38.2 °F - - N/A% 30.16 in 1.8 mi Calm Calm - N/A   Clear
9:01 PM -38.0 °F - - N/A% 30.31 in 1.8 mi Calm Calm - N/A   Clear
9:13 PM -38.2 °F - - N/A% 30.17 in 2.0 mi Calm Calm - N/A   Clear
9:25 PM -38.2 °F - - N/A% 30.17 in 1.8 mi Calm Calm - N/A   Clear
9:40 PM -38.2 °F - - N/A% 30.17 in 1.2 mi Calm Calm - N/A   Scattered Clouds
10:01 PM -41.1 °F - - N/A% 30.34 in 1.2 mi Calm Calm - N/A   Scattered Clouds
10:18 PM -41.8 °F - - N/A% 30.18 in 2.5 mi Calm Calm - N/A   Partly Cloudy
10:25 PM -41.8 °F -55.6 °F - N/A% 30.19 in 4.0 mi NNW 3.5 mph - N/A   Haze
11:01 PM -41.8 °F - - N/A% 30.19 in 1.5 mi Calm Calm - N/A   Clear
11:08 PM -41.8 °F - - N/A% 30.19 in 1.5 mi Calm Calm - N/A   Partly Cloudy
11:18 PM -41.8 °F - - N/A% 30.20 in 2.5 mi Calm Calm - N/A   Clear
11:39 PM -43.6 °F -60.8 °F - N/A% 30.20 in 8.0 mi North 4.6 mph - N/A   Clear